Regional Weather Roundup
Issued by NWS Northern Indiana

Home | Current Version | Previous Version | Text Only | Print | Product List | Glossary Off
Versions: 1 2 3 4 5 6 7 8 9 10 11 12 13 14 15 16 17 18 19 20 21 22 23 24 25 26 27 28 29 30 31 32 33 34 35 36 37 38 39 40 41 42 43 44 45 46 47 48 49 50

000
ASUS43 KIWX 210300
RWRIWX

KIWX WEATHER ROUNDUP
NATIONAL WEATHER SERVICE NORTHERN INDIANA
1100 PM EDT MON OCT 20 2014

NOTE: "FAIR" INDICATES FEW OR NO CLOUDS BELOW 12,000 FEET WITH NO
SIGNIFICANT WEATHER AND/OR OBSTRUCTIONS TO VISIBILITY.

* THESE STATIONS ARE NOT UNDER NWS QUALITY CONTROL. THEY ALSO MAY NOT
  REPORT WEATHER SUCH AS PRECIPITATION OR FOG.

INZ001>027-210400-
NORTHERN INDIANA

CITY           SKY/WX    TMP DP  RH WIND       PRES   REMARKS
GARY*          CLOUDY    55  45  67 N14       29.99R
VALPARAISO     CLOUDY    52  45  76 N7        29.98R
SOUTH BEND     CLOUDY    52  46  80 N7        29.97R
GOSHEN         CLOUDY    52  44  74 NW12      29.94R
ANGOLA*        CLOUDY    52  46  82 NW8       29.91S
FORT WAYNE     CLOUDY    53  47  79 NW9       29.93R
PERU/GRISSOM   PTCLDY    51  51 100 N6        29.95R

$$
INZ028>050-210400-
CENTRAL INDIANA

CITY           SKY/WX    TMP DP  RH WIND       PRES   REMARKS
LAFAYETTE      PTCLDY    50  46  86 N5        29.97R
KOKOMO*        PTCLDY    52  45  76 N7        29.96R
MUNCIE*        LGT RAIN  54  48  80 NW10      29.93R
INDIANAPOLIS   PTCLDY    56  46  69 N13       29.95R

$$
MIZ043>046-050>051-056>058-064>065-071>073-077>080-210400-
SOUTHWEST LOWER MICHIGAN

CITY           SKY/WX    TMP DP  RH WIND       PRES   REMARKS
BATTLE CREEK   CLOUDY    50  42  74 NW10      29.93R
BENTON HARBOR  LGT RAIN  51  44  77 VRB7G18   29.96S
COLDWATER*     CLOUDY    52  46  80 NW7       29.91S
HILLSDALE*     CLOUDY    52  51  94 NW6       29.89S
HOLLAND        CLOUDY    50  43  77 N5        29.97R
GRAND RAPIDS   CLOUDY    49  43  80 NW10      29.94R
KALAMAZOO      CLOUDY    50  41  71 N10       29.94R
STURGIS*       CLOUDY    50  45  81 NW6       29.92S
THREE RIVERS*  CLOUDY    51  45  78 NW6       29.94R

$$
OHZ001>008-015>018-024>025-210400-
NORTHWEST OHIO

CITY           SKY/WX    TMP DP  RH WIND       PRES   REMARKS
DEFIANCE       CLOUDY    54  48  80 NW8       29.89S
FINDLAY        CLOUDY    53  50  89 NW6       29.87S
TOLEDO EXPRESS CLOUDY    53  49  86 NW7       29.87R
TOLEDO METCALF CLOUDY    53  49  86 W9        29.87S
LIMA           PTCLDY    52  49  89 NW5       29.88S

$$
AND FOR LAKE MICHIGAN COASTAL AND OPEN LAKE BUOY OBSERVATIONS

STATION/POSITION TEMP    WIND        PRES    VSBY  WAVE
                 AIR SEA DIR/SP/G                  HT/PER
                 (F)     (DEG/KT/KT) (MB)    (MI)  (FT/S)
MICHIGAN CITY     53     340/ 23/ 25   N/A
SAINT JOSEPH      53                 1014.9F
SOUTH LAKE BUOY   52 55  340/ 12/ 16 1015.0R         3/ 5

$$
&&


USA.gov is the U.S. government's official web portal to all federal, state and local government web resources and services.